STARLINK-4001 (52628 NORAD) Tracking and Keplerian Element Data

This shows tracking and keplerian element data for the satellite.

Feedback or suggestion? Click here.




ElementValue
Catalog52628
NameSTARLINK-4001
Epoch Orbit939
Epoch Day193.16667824
Epoch Year2022
RAAN163.9891
Inclination53.2159
Eccentricity0.0001867
Argument of Perigee58.0829
Mean Anonmoly274.4966
Mean Motion15.08845625
Decay Rate-0.00016453
L11 52628U 22052AG 22193.16667824 -.00016453 00000+0 -10178-2 0 9990
L22 52628 53.2159 163.9891 0001867 58.0829 274.4966 15.08845625 9394

Live tracking and technical data element details for STARLINK-4001 (NORAD 52628). STARLINK-4001 can be tracked NOW for your location showing map with azimuth and elevation plus other details from your city location.

Track the satellite on the map from your city or location and see movement details for azimuth, elevation, latitude, longitude, range, height, and movement on the map or in text.







IsCatalogInMostPopularTable: catalog: 52628, numindb: 6
Update: records affected: 1



GetName: 52628 STARLINK-4001

Hit Count: updated at: Sun, 14 Aug 2022 01:39:35 GMT